Location: Bishop�s Knoyle
(51.0728°N, 2.1714°W)
Time: 14:31:23
(UTC+00:00)

BEESAT 2 - Visible Passes

Search period start: 28 November 2021 00:00
Search period end: 08 December 2021 00:00
Orbit: 497 x 517 km, 64.9° (Epoch: 27 November)

Date Brightness Start Highest point End Pass type
(mag) Time Alt. Az. Time Alt. Az. Time Alt. Az.
28 Nov ? 06:04:12 12° NNW 06:06:46 19° NNE 06:09:39 10° ENE visible
29 Nov ? 05:46:18 14° N 05:48:12 19° NNE 05:51:05 10° ENE visible
30 Nov ? 05:28:24 16° N 05:29:39 19° NNE 05:32:29 10° ENE visible
30 Nov ? 07:03:49 10° NW 07:07:45 75° NE 07:11:38 10° SE visible
01 Dec ? 05:10:32 18° NNE 05:11:06 18° NNE 05:13:54 10° ENE visible
01 Dec ? 06:45:20 10° NW 06:49:13 73° NE 06:53:05 10° SE visible
02 Dec ? 04:52:41 18° NNE 04:52:41 18° NNE 04:55:18 10° ENE visible
02 Dec ? 06:27:29 15° NW 06:30:40 70° NE 06:34:31 10° SE visible
03 Dec ? 04:34:52 17° NE 04:34:52 17° NE 04:36:42 10° ENE visible
03 Dec ? 06:09:41 22° NNW 06:12:06 68° NE 06:15:58 10° SE visible
04 Dec ? 04:17:06 14° NE 04:17:06 14° NE 04:18:04 10° ENE visible
04 Dec ? 05:51:55 32° NNW 05:53:33 65° NE 05:57:24 10° SE visible
05 Dec ? 03:59:23 10° ENE 03:59:23 10° ENE 03:59:28 10° ENE visible
05 Dec ? 05:34:12 49° N 05:34:58 63° NE 05:38:50 10° SE visible
05 Dec ? 07:09:18 10° WNW 07:12:03 19° WSW 07:14:46 10° SSW visible
06 Dec ? 05:16:32 60° ENE 05:16:32 60° ENE 05:20:15 10° SE visible
06 Dec ? 06:51:21 13° WNW 06:53:30 19° WSW 06:56:17 10° SSW visible
07 Dec ? 04:58:56 40° ESE 04:58:56 40° ESE 05:01:40 10° SE visible
07 Dec ? 06:33:46 18° W 06:34:56 20° WSW 06:37:48 10° SSW visible
